Time,TemperatureF,DewpointF,PressureIn,WindDirection,WindDirectionDegrees,WindSpeedMPH,WindSpeedGustMPH,Humidity,HourlyPrecipIn,Conditions,Clouds,dailyrainin,SoftwareType,DateUTC
2013-05-13 00:00:00,46.1,19.9,30.05,ENE,76,0.0,0.0,35,0.00,,,0.00,Wunderground v.1.15,2013-05-13 05:00:00,
2013-05-13 00:10:00,46.5,18.9,30.05,ENE,76,0.0,0.0,33,0.00,,,0.00,Wunderground v.1.15,2013-05-13 05:10:00,
2013-05-13 00:19:00,46.4,18.8,30.05,ENE,76,0.0,0.0,33,0.00,,,0.00,Wunderground v.1.15,2013-05-13 05:19:00,
2013-05-13 00:25:00,46.4,19.5,30.05,ENE,76,0.0,0.0,34,0.00,,,0.00,Wunderground v.1.15,2013-05-13 05:25:00,
2013-05-13 00:30:00,46.2,19.3,30.05,ENE,76,0.0,0.0,34,0.00,,,0.00,Wunderground v.1.15,2013-05-13 05:30:00,
2013-05-13 00:40:00,45.7,21.5,30.05,ENE,76,0.0,0.0,38,0.00,,,0.00,Wunderground v.1.15,2013-05-13 05:40:00,
2013-05-13 00:49:00,45.5,21.3,30.04,ENE,76,0.0,0.0,38,0.00,,,0.00,Wunderground v.1.15,2013-05-13 05:49:00,
2013-05-13 00:55:00,45.5,21.3,30.04,ENE,76,0.0,0.0,38,0.00,,,0.00,Wunderground v.1.15,2013-05-13 05:55:00,
2013-05-13 01:00:00,45.4,20.6,30.04,ENE,76,0.0,0.0,37,0.00,,,0.00,Wunderground v.1.15,2013-05-13 06:00:00,
2013-05-13 01:10:00,45.5,20.1,30.04,ESE,119,0.0,0.0,36,0.00,,,0.00,Wunderground v.1.15,2013-05-13 06:10:00,
2013-05-13 01:15:00,45.7,20.2,30.04,ESE,119,0.0,0.0,36,0.00,,,0.00,Wunderground v.1.15,2013-05-13 06:15:00,
2013-05-13 01:25:00,45.7,20.2,30.04,SE,140,0.0,1.0,36,0.00,,,0.00,Wunderground v.1.15,2013-05-13 06:25:00,
2013-05-13 01:30:00,45.7,20.2,30.04,SE,140,0.0,0.0,36,0.00,,,0.00,Wunderground v.1.15,2013-05-13 06:30:00,
2013-05-13 01:40:00,45.2,21.1,30.04,SSE,151,0.0,0.0,38,0.00,,,0.00,Wunderground v.1.15,2013-05-13 06:40:00,
2013-05-13 01:45:00,44.9,20.8,30.03,SSE,151,0.0,0.0,38,0.00,,,0.00,Wunderground v.1.15,2013-05-13 06:45:00,
2013-05-13 01:55:00,44.8,21.3,30.03,SSE,151,0.0,0.0,39,0.00,,,0.00,Wunderground v.1.15,2013-05-13 06:55:00,
2013-05-13 02:00:00,44.8,20.7,30.03,SSE,161,0.0,2.0,38,0.00,,,0.00,Wunderground v.1.15,2013-05-13 07:00:00,
2013-05-13 02:10:00,44.8,21.9,30.03,SSE,160,0.0,0.0,40,0.00,,,0.00,Wunderground v.1.15,2013-05-13 07:10:00,
2013-05-13 02:20:00,44.6,21.7,30.02,SSE,160,0.0,0.0,40,0.00,,,0.00,Wunderground v.1.15,2013-05-13 07:20:00,
2013-05-13 02:30:00,44.3,22.6,30.02,SSE,160,0.0,0.0,42,0.00,,,0.00,Wunderground v.1.15,2013-05-13 07:30:00,
2013-05-13 02:40:00,44.1,23.0,30.02,SSE,158,0.0,0.0,43,0.00,,,0.00,Wunderground v.1.15,2013-05-13 07:40:00,
2013-05-13 02:50:00,44.1,22.4,30.02,SSE,160,0.0,1.0,42,0.00,,,0.00,Wunderground v.1.15,2013-05-13 07:50:00,
2013-05-13 03:00:00,43.9,23.4,30.02,SSE,158,1.0,1.0,44,0.00,,,0.00,Wunderground v.1.15,2013-05-13 08:00:00,
2013-05-13 03:10:00,43.9,22.3,30.02,SSE,165,0.0,1.0,42,0.00,,,0.00,Wunderground v.1.15,2013-05-13 08:10:00,
2013-05-13 03:20:00,43.6,23.1,30.01,SSE,164,2.0,2.0,44,0.00,,,0.00,Wunderground v.1.15,2013-05-13 08:20:00,
2013-05-13 03:25:00,43.5,23.5,30.01,SSE,158,2.0,2.0,45,0.00,,,0.00,Wunderground v.1.15,2013-05-13 08:25:00,
2013-05-13 03:30:00,43.3,23.4,30.00,SSE,158,1.0,1.0,45,0.00,,,0.00,Wunderground v.1.15,2013-05-13 08:30:00,
2013-05-13 03:40:00,43.1,23.2,30.00,SSE,164,2.0,2.0,45,0.00,,,0.00,Wunderground v.1.15,2013-05-13 08:40:00,
2013-05-13 03:50:00,42.8,23.4,30.00,SSE,165,1.0,1.0,46,0.00,,,0.00,Wunderground v.1.15,2013-05-13 08:50:00,
2013-05-13 03:55:00,42.6,23.8,30.00,SSE,161,1.0,1.0,47,0.00,,,0.00,Wunderground v.1.15,2013-05-13 08:55:00,
2013-05-13 04:05:00,42.5,23.7,30.01,SSE,161,1.0,2.0,47,0.00,,,0.00,Wunderground v.1.15,2013-05-13 09:05:00,
2013-05-13 04:15:00,42.5,25.1,30.00,SSE,161,1.0,1.0,50,0.00,,,0.00,Wunderground v.1.15,2013-05-13 09:15:00,
2013-05-13 04:24:00,42.6,25.2,30.00,SSE,161,0.0,2.0,50,0.00,,,0.00,Wunderground v.1.15,2013-05-13 09:24:00,
2013-05-13 04:30:00,42.6,25.2,30.00,SSE,161,0.0,0.0,50,0.00,,,0.00,Wunderground v.1.15,2013-05-13 09:30:00,
2013-05-13 04:35:00,42.8,25.4,30.00,SSE,161,0.0,0.0,50,0.00,,,0.00,Wunderground v.1.15,2013-05-13 09:35:00,
2013-05-13 04:45:00,43.2,25.8,30.00,SSE,165,1.0,1.0,50,0.00,,,0.00,Wunderground v.1.15,2013-05-13 09:45:00,
2013-05-13 04:55:00,43.5,26.1,30.00,SSE,161,2.0,2.0,50,0.00,,,0.00,Wunderground v.1.15,2013-05-13 09:55:00,
2013-05-13 05:00:00,43.5,26.6,29.99,SSE,167,1.0,1.0,51,0.00,,,0.00,Wunderground v.1.15,2013-05-13 10:00:00,
2013-05-13 05:10:00,43.8,25.4,29.99,SSE,167,2.0,2.0,48,0.00,,,0.00,Wunderground v.1.15,2013-05-13 10:10:00,
2013-05-13 05:20:00,43.6,25.7,29.99,SSE,168,2.0,6.0,49,0.00,,,0.00,Wunderground v.1.15,2013-05-13 10:20:00,
2013-05-13 05:30:00,43.6,25.2,29.99,SSE,158,2.0,4.0,48,0.00,,,0.00,Wunderground v.1.15,2013-05-13 10:30:00,
2013-05-13 05:40:00,43.8,25.4,29.99,SSE,155,4.0,4.0,48,0.00,,,0.00,Wunderground v.1.15,2013-05-13 10:40:00,
2013-05-13 05:50:00,43.8,24.9,29.99,South,169,4.0,4.0,47,0.00,,,0.00,Wunderground v.1.15,2013-05-13 10:50:00,
2013-05-13 06:00:00,43.6,24.2,29.99,SSE,162,2.0,2.0,46,0.00,,,0.00,Wunderground v.1.15,2013-05-13 11:00:00,
2013-05-13 06:10:00,43.8,23.8,29.99,SSE,161,2.0,2.0,45,0.00,,,0.00,Wunderground v.1.15,2013-05-13 11:10:00,
2013-05-13 06:20:00,43.9,23.4,29.99,SSE,161,3.0,8.0,44,0.00,,,0.00,Wunderground v.1.15,2013-05-13 11:20:00,
2013-05-13 06:25:00,43.9,23.4,29.99,SSE,161,4.0,8.0,44,0.00,,,0.00,Wunderground v.1.15,2013-05-13 11:25:00,
2013-05-13 06:30:00,43.9,23.4,29.98,SSE,154,5.0,5.0,44,0.00,,,0.00,Wunderground v.1.15,2013-05-13 11:30:00,
2013-05-13 06:40:00,44.3,23.2,29.98,SSE,162,5.0,9.0,43,0.00,,,0.00,Wunderground v.1.15,2013-05-13 11:40:00,
2013-05-13 06:45:00,44.6,23.5,29.99,SSE,160,4.0,9.0,43,0.00,,,0.00,Wunderground v.1.15,2013-05-13 11:45:00,
2013-05-13 06:55:00,44.6,23.5,29.99,SSE,161,3.0,4.0,43,0.00,,,0.00,Wunderground v.1.15,2013-05-13 11:55:00,
2013-05-13 07:05:00,44.8,24.2,29.99,SSE,157,3.0,6.0,44,0.00,,,0.00,Wunderground v.1.15,2013-05-13 12:05:00,
2013-05-13 07:15:00,45.4,24.7,29.98,SSE,152,3.0,4.0,44,0.00,,,0.00,Wunderground v.1.15,2013-05-13 12:15:00,
2013-05-13 07:25:00,46.2,23.8,29.98,SSE,162,3.0,7.0,41,0.00,,,0.00,Wunderground v.1.15,2013-05-13 12:25:00,
2013-05-13 07:35:00,46.7,24.2,29.98,South,179,5.0,6.0,41,0.00,,,0.00,Wunderground v.1.15,2013-05-13 12:35:00,
2013-05-13 07:45:00,47.3,23.6,29.97,South,188,4.0,7.0,39,0.00,,,0.00,Wunderground v.1.15,2013-05-13 12:45:00,
2013-05-13 07:55:00,48.0,23.6,29.97,South,175,5.0,9.0,38,0.00,,,0.00,Wunderground v.1.15,2013-05-13 12:55:00,
2013-05-13 08:05:00,48.5,23.4,29.97,SSE,157,7.0,14.0,37,0.00,,,0.00,Wunderground v.1.15,2013-05-13 13:05:00,
2013-05-13 08:10:00,48.6,24.1,29.97,SSE,161,8.0,14.0,38,0.00,,,0.00,Wunderground v.1.15,2013-05-13 13:10:00,
2013-05-13 08:15:00,48.8,24.3,29.96,SSE,168,9.0,14.0,38,0.00,,,0.00,Wunderground v.1.15,2013-05-13 13:15:00,
2013-05-13 08:25:00,49.2,22.7,29.96,SSE,165,8.0,11.0,35,0.00,,,0.00,Wunderground v.1.15,2013-05-13 13:25:00,
2013-05-13 08:35:00,49.6,23.0,29.96,SSE,168,9.0,10.0,35,0.00,,,0.00,Wunderground v.1.15,2013-05-13 13:35:00,
2013-05-13 08:40:00,49.9,22.6,29.96,South,174,9.0,14.0,34,0.00,,,0.00,Wunderground v.1.15,2013-05-13 13:40:00,
2013-05-13 08:50:00,50.2,23.6,29.95,SSE,164,8.0,10.0,35,0.00,,,0.00,Wunderground v.1.15,2013-05-13 13:50:00,
2013-05-13 09:00:00,50.7,24.0,29.93,SSE,167,9.0,11.0,35,0.00,,,0.00,Wunderground v.1.15,2013-05-13 14:00:00,
2013-05-13 09:10:00,51.0,24.3,29.93,SE,145,8.0,8.0,35,0.00,,,0.00,Wunderground v.1.15,2013-05-13 14:10:00,
2013-05-13 09:20:00,51.6,25.5,29.94,SSE,165,7.0,7.0,36,0.00,,,0.00,Wunderground v.1.15,2013-05-13 14:20:00,
2013-05-13 09:30:00,52.3,24.7,29.92,SSE,155,9.0,9.0,34,0.00,,,0.00,Wunderground v.1.15,2013-05-13 14:30:00,
2013-05-13 09:40:00,52.3,25.4,29.92,SSE,151,9.0,9.0,35,0.00,,,0.00,Wunderground v.1.15,2013-05-13 14:40:00,
2013-05-13 09:50:00,52.3,27.4,29.90,SSE,162,10.0,10.0,38,0.00,,,0.00,Wunderground v.1.15,2013-05-13 14:50:00,
2013-05-13 09:55:00,53.1,26.8,29.90,South,174,10.0,10.0,36,0.00,,,0.00,Wunderground v.1.15,2013-05-13 14:55:00,
2013-05-13 10:00:00,53.6,26.6,29.88,SSE,165,10.0,13.0,35,0.00,,,0.00,Wunderground v.1.15,2013-05-13 15:00:00,
2013-05-13 10:10:00,54.5,27.4,29.88,South,174,9.0,9.0,35,0.00,,,0.00,Wunderground v.1.15,2013-05-13 15:10:00,
2013-05-13 10:20:00,54.8,26.9,29.90,SSE,158,7.0,7.0,34,0.00,,,0.00,Wunderground v.1.15,2013-05-13 15:20:00,
2013-05-13 10:25:00,55.0,27.8,29.90,SSE,155,8.0,8.0,35,0.00,,,0.00,Wunderground v.1.15,2013-05-13 15:25:00,
2013-05-13 10:30:00,55.1,27.2,29.89,South,175,8.0,8.0,34,0.00,,,0.00,Wunderground v.1.15,2013-05-13 15:30:00,
2013-05-13 10:40:00,56.6,25.5,29.89,South,176,8.0,8.0,30,0.00,,,0.00,Wunderground v.1.15,2013-05-13 15:40:00,
2013-05-13 10:45:00,57.0,25.8,29.88,SSE,168,9.0,11.0,30,0.00,,,0.00,Wunderground v.1.15,2013-05-13 15:45:00,
2013-05-13 10:55:00,55.6,31.0,29.88,SSE,151,10.0,13.0,39,0.00,,,0.00,Wunderground v.1.15,2013-05-13 15:55:00,
2013-05-13 11:04:00,56.6,30.6,29.86,SSE,151,10.0,10.0,37,0.00,,,0.00,Wunderground v.1.15,2013-05-13 16:04:00,
2013-05-13 11:10:00,57.2,30.5,29.86,SSE,160,9.0,9.0,36,0.00,,,0.00,Wunderground v.1.15,2013-05-13 16:10:00,
2013-05-13 11:15:00,57.3,29.9,29.86,South,179,10.0,10.0,35,0.00,,,0.00,Wunderground v.1.15,2013-05-13 16:15:00,
2013-05-13 11:25:00,57.8,30.3,29.86,SSE,160,9.0,13.0,35,0.00,,,0.00,Wunderground v.1.15,2013-05-13 16:25:00,
2013-05-13 11:35:00,58.7,30.4,29.85,SSE,151,9.0,17.0,34,0.00,,,0.00,Wunderground v.1.15,2013-05-13 16:35:00,
2013-05-13 11:40:00,59.3,31.6,29.85,SSE,157,10.0,11.0,35,0.00,,,0.00,Wunderground v.1.15,2013-05-13 16:40:00,
2013-05-13 11:50:00,60.1,32.3,29.84,SSE,157,11.0,22.0,35,0.00,,,0.00,Wunderground v.1.15,2013-05-13 16:50:00,
2013-05-13 12:00:00,60.4,31.9,29.84,South,172,12.0,12.0,34,0.00,,,0.00,Wunderground v.1.15,2013-05-13 17:00:00,
2013-05-13 12:10:00,61.6,33.7,29.84,SSE,167,13.0,13.0,35,0.00,,,0.00,Wunderground v.1.15,2013-05-13 17:10:00,
2013-05-13 12:20:00,62.1,33.4,29.82,SSE,157,14.0,14.0,34,0.00,,,0.00,Wunderground v.1.15,2013-05-13 17:20:00,
2013-05-13 12:30:00,63.1,35.0,29.81,SE,131,11.0,15.0,35,0.00,,,0.00,Wunderground v.1.15,2013-05-13 17:30:00,
2013-05-13 12:39:00,63.9,34.2,29.81,SSE,164,13.0,13.0,33,0.00,,,0.00,Wunderground v.1.15,2013-05-13 17:39:00,
2013-05-13 12:45:00,64.2,34.5,29.80,SSE,168,12.0,14.0,33,0.00,,,0.00,Wunderground v.1.15,2013-05-13 17:45:00,
2013-05-13 12:55:00,64.3,35.3,29.80,SSE,154,11.0,14.0,34,0.00,,,0.00,Wunderground v.1.15,2013-05-13 17:55:00,
2013-05-13 13:00:00,64.7,34.9,29.78,South,176,12.0,15.0,33,0.00,,,0.00,Wunderground v.1.15,2013-05-13 18:00:00,
2013-05-13 13:10:00,65.8,35.9,29.78,South,169,13.0,16.0,33,0.00,,,0.00,Wunderground v.1.15,2013-05-13 18:10:00,
2013-05-13 13:15:00,66.3,37.1,29.77,South,171,13.0,18.0,34,0.00,,,0.00,Wunderground v.1.15,2013-05-13 18:15:00,
2013-05-13 13:25:00,67.1,38.5,29.77,South,174,14.0,14.0,35,0.00,,,0.00,Wunderground v.1.15,2013-05-13 18:25:00,
2013-05-13 13:35:00,68.3,39.6,29.75,SSE,160,11.0,15.0,35,0.00,,,0.00,Wunderground v.1.15,2013-05-13 18:35:00,
2013-05-13 13:45:00,68.6,40.6,29.74,SSW,195,14.0,20.0,36,0.00,,,0.00,Wunderground v.1.15,2013-05-13 18:45:00,
2013-05-13 13:55:00,68.9,40.8,29.74,SSE,160,13.0,24.0,36,0.00,,,0.00,Wunderground v.1.15,2013-05-13 18:55:00,
2013-05-13 14:05:00,69.8,42.3,29.73,South,176,13.0,15.0,37,0.00,,,0.00,Wunderground v.1.15,2013-05-13 19:05:00,
2013-05-13 14:15:00,70.6,43.1,29.72,South,171,14.0,21.0,37,0.00,,,0.00,Wunderground v.1.15,2013-05-13 19:15:00,
2013-05-13 14:25:00,70.9,43.3,29.72,SSE,165,14.0,15.0,37,0.00,,,0.00,Wunderground v.1.15,2013-05-13 19:25:00,
2013-05-13 14:35:00,72.1,44.4,29.71,SSW,199,10.0,12.0,37,0.00,,,0.00,Wunderground v.1.15,2013-05-13 19:35:00,
2013-05-13 14:45:00,73.2,45.4,29.72,SSW,198,8.0,9.0,37,0.00,,,0.00,Wunderground v.1.15,2013-05-13 19:45:00,
2013-05-13 14:55:00,73.9,44.5,29.72,SSW,192,9.0,9.0,35,0.00,,,0.00,Wunderground v.1.15,2013-05-13 19:55:00,
2013-05-13 15:05:00,74.6,45.1,29.72,South,186,9.0,11.0,35,0.00,,,0.00,Wunderground v.1.15,2013-05-13 20:05:00,
2013-05-13 15:10:00,74.7,44.5,29.72,SW,216,8.0,10.0,34,0.00,,,0.00,Wunderground v.1.15,2013-05-13 20:10:00,
2013-05-13 15:15:00,75.3,45.7,29.72,SW,223,7.0,11.0,35,0.00,,,0.00,Wunderground v.1.15,2013-05-13 20:15:00,
2013-05-13 15:25:00,76.0,44.8,29.72,SSW,205,8.0,8.0,33,0.00,,,0.00,Wunderground v.1.15,2013-05-13 20:25:00,
2013-05-13 15:30:00,76.0,45.6,29.70,SSW,212,8.0,8.0,34,0.00,,,0.00,Wunderground v.1.15,2013-05-13 20:30:00,
2013-05-13 15:40:00,76.3,44.3,29.70,South,181,8.0,9.0,32,0.00,,,0.00,Wunderground v.1.15,2013-05-13 20:40:00,
2013-05-13 15:50:00,77.2,45.0,29.68,South,185,8.0,8.0,32,0.00,,,0.00,Wunderground v.1.15,2013-05-13 20:50:00,
2013-05-13 16:00:00,77.7,44.6,29.67,SSW,212,7.0,7.0,31,0.00,,,0.00,Wunderground v.1.15,2013-05-13 21:00:00,
2013-05-13 16:10:00,78.1,45.0,29.67,South,178,7.0,7.0,31,0.00,,,0.00,Wunderground v.1.15,2013-05-13 21:10:00,
2013-05-13 16:20:00,78.6,43.7,29.65,SSW,203,8.0,8.0,29,0.00,,,0.00,Wunderground v.1.15,2013-05-13 21:20:00,
2013-05-13 16:30:00,79.6,45.4,29.64,SW,222,9.0,10.0,30,0.00,,,0.00,Wunderground v.1.15,2013-05-13 21:30:00,
2013-05-13 16:40:00,79.6,44.5,29.64,SW,217,8.0,8.0,29,0.00,,,0.00,Wunderground v.1.15,2013-05-13 21:40:00,
2013-05-13 16:50:00,80.3,45.1,29.63,SW,229,8.0,8.0,29,0.00,,,0.00,Wunderground v.1.15,2013-05-13 21:50:00,
2013-05-13 17:00:00,81.6,44.4,29.62,SW,234,7.0,7.0,27,0.00,,,0.00,Wunderground v.1.15,2013-05-13 22:00:00,
2013-05-13 17:10:00,81.6,46.3,29.62,WSW,237,7.0,7.0,29,0.00,,,0.00,Wunderground v.1.15,2013-05-13 22:10:00,
2013-05-13 17:15:00,81.8,44.5,29.62,WSW,251,7.0,7.0,27,0.00,,,0.00,Wunderground v.1.15,2013-05-13 22:15:00,
2013-05-13 17:25:00,81.4,45.2,29.62,SW,224,8.0,9.0,28,0.00,,,0.00,Wunderground v.1.15,2013-05-13 22:25:00,
2013-05-13 17:35:00,81.6,46.3,29.62,SW,216,8.0,8.0,29,0.00,,,0.00,Wunderground v.1.15,2013-05-13 22:35:00,
2013-05-13 17:45:00,81.6,46.3,29.61,SW,229,7.0,10.0,29,0.00,,,0.00,Wunderground v.1.15,2013-05-13 22:45:00,
2013-05-13 17:55:00,81.2,45.9,29.61,WSW,246,6.0,7.0,29,0.00,,,0.00,Wunderground v.1.15,2013-05-13 22:55:00,
2013-05-13 18:05:00,81.2,46.8,29.60,WSW,237,5.0,6.0,30,0.00,,,0.00,Wunderground v.1.15,2013-05-13 23:05:00,
2013-05-13 18:10:00,81.6,47.2,29.60,WSW,253,5.0,5.0,30,0.00,,,0.00,Wunderground v.1.15,2013-05-13 23:10:00,
2013-05-13 18:20:00,81.6,46.3,29.58,SW,232,3.0,6.0,29,0.00,,,0.00,Wunderground v.1.15,2013-05-13 23:20:00,
2013-05-13 18:30:00,81.8,45.5,29.58,WSW,246,5.0,5.0,28,0.00,,,0.00,Wunderground v.1.15,2013-05-13 23:30:00,
2013-05-13 18:40:00,82.0,45.7,29.58,WSW,253,5.0,7.0,28,0.00,,,0.00,Wunderground v.1.15,2013-05-13 23:40:00,
2013-05-13 18:50:00,82.0,45.7,29.57,WSW,243,4.0,4.0,28,0.00,,,0.00,Wunderground v.1.15,2013-05-13 23:50:00,
2013-05-13 19:00:00,81.8,47.3,29.57,SW,232,4.0,4.0,30,0.00,,,0.00,Wunderground v.1.15,2013-05-14 00:00:00,
2013-05-13 19:10:00,81.4,47.9,29.57,SSW,202,2.0,2.0,31,0.00,,,0.00,Wunderground v.1.15,2013-05-14 00:10:00,
2013-05-13 19:20:00,80.3,47.7,29.56,SSW,202,0.0,0.0,32,0.00,,,0.00,Wunderground v.1.15,2013-05-14 00:20:00,
2013-05-13 19:30:00,79.4,47.8,29.56,SSW,200,0.0,0.0,33,0.00,,,0.00,Wunderground v.1.15,2013-05-14 00:30:00,
2013-05-13 19:40:00,79.0,48.2,29.56,SSW,200,0.0,0.0,34,0.00,,,0.00,Wunderground v.1.15,2013-05-14 00:40:00,
2013-05-13 19:50:00,78.6,47.9,29.56,SSW,199,0.0,0.0,34,0.00,,,0.00,Wunderground v.1.15,2013-05-14 00:50:00,
2013-05-13 19:55:00,78.5,48.6,29.56,SSW,199,0.0,0.0,35,0.00,,,0.00,Wunderground v.1.15,2013-05-14 00:55:00,
2013-05-13 20:00:00,78.3,47.6,29.55,SSW,199,0.0,0.0,34,0.00,,,0.00,Wunderground v.1.15,2013-05-14 01:00:00,
2013-05-13 20:10:00,77.9,48.0,29.55,SSW,199,0.0,0.0,35,0.00,,,0.00,Wunderground v.1.15,2013-05-14 01:10:00,
2013-05-13 20:15:00,77.7,47.9,29.55,SSW,199,0.0,0.0,35,0.00,,,0.00,Wunderground v.1.15,2013-05-14 01:15:00,
2013-05-13 20:25:00,77.2,47.4,29.55,SSW,199,0.0,0.0,35,0.00,,,0.00,Wunderground v.1.15,2013-05-14 01:25:00,
2013-05-13 20:35:00,76.8,47.8,29.54,South,184,0.0,0.0,36,0.00,,,0.00,Wunderground v.1.15,2013-05-14 01:35:00,
2013-05-13 20:45:00,76.3,48.1,29.54,South,191,0.0,1.0,37,0.00,,,0.00,Wunderground v.1.15,2013-05-14 01:45:00,
2013-05-13 20:55:00,76.8,47.1,29.54,SSW,209,3.0,3.0,35,0.00,,,0.00,Wunderground v.1.15,2013-05-14 01:55:00,
2013-05-13 21:05:00,76.3,48.1,29.54,SW,215,3.0,4.0,37,0.00,,,0.00,Wunderground v.1.15,2013-05-14 02:05:00,
2013-05-13 21:10:00,76.1,47.9,29.54,SW,215,1.0,1.0,37,0.00,,,0.00,Wunderground v.1.15,2013-05-14 02:10:00,
2013-05-13 21:15:00,76.0,47.8,29.55,SW,215,1.0,1.0,37,0.00,,,0.00,Wunderground v.1.15,2013-05-14 02:15:00,
2013-05-13 21:25:00,75.3,47.9,29.55,SW,215,0.0,0.0,38,0.00,,,0.00,Wunderground v.1.15,2013-05-14 02:25:00,
2013-05-13 21:30:00,74.7,48.1,29.55,SW,215,0.0,0.0,39,0.00,,,0.00,Wunderground v.1.15,2013-05-14 02:30:00,
2013-05-13 21:40:00,74.2,47.0,29.55,SW,215,0.0,0.0,38,0.00,,,0.00,Wunderground v.1.15,2013-05-14 02:40:00,
2013-05-13 21:45:00,74.2,46.2,29.56,SW,215,1.0,1.0,37,0.00,,,0.00,Wunderground v.1.15,2013-05-14 02:45:00,
2013-05-13 21:55:00,74.2,44.8,29.56,SW,215,0.0,1.0,35,0.00,,,0.00,Wunderground v.1.15,2013-05-14 02:55:00,
2013-05-13 22:00:00,74.0,44.6,29.57,SW,215,0.0,1.0,35,0.00,,,0.00,Wunderground v.1.15,2013-05-14 03:00:00,
2013-05-13 22:10:00,73.9,43.0,29.57,SW,215,1.0,1.0,33,0.00,,,0.00,Wunderground v.1.15,2013-05-14 03:10:00,
2013-05-13 22:20:00,73.5,42.6,29.57,SW,215,0.0,0.0,33,0.00,,,0.00,Wunderground v.1.15,2013-05-14 03:20:00,
2013-05-13 22:30:00,73.5,41.8,29.57,WNW,298,0.0,2.0,32,0.00,,,0.00,Wunderground v.1.15,2013-05-14 03:30:00,
2013-05-13 22:40:00,73.7,41.2,29.57,WNW,302,1.0,1.0,31,0.00,,,0.00,Wunderground v.1.15,2013-05-14 03:40:00,
2013-05-13 22:50:00,73.3,41.6,29.57,WNW,296,1.0,1.0,32,0.00,,,0.00,Wunderground v.1.15,2013-05-14 03:50:00,
2013-05-13 23:00:00,73.2,40.7,29.58,NW,305,1.0,1.0,31,0.00,,,0.00,Wunderground v.1.15,2013-05-14 04:00:00,
2013-05-13 23:05:00,73.2,40.7,29.58,NW,320,1.0,1.0,31,0.00,,,0.00,Wunderground v.1.15,2013-05-14 04:05:00,
2013-05-13 23:10:00,73.2,40.7,29.58,WNW,289,1.0,1.0,31,0.00,,,0.00,Wunderground v.1.15,2013-05-14 04:10:00,
2013-05-13 23:15:00,73.2,40.7,29.58,WNW,301,1.0,1.0,31,0.00,,,0.00,Wunderground v.1.15,2013-05-14 04:15:00,
2013-05-13 23:20:00,72.8,40.4,29.58,WNW,301,0.0,1.0,31,0.00,,,0.00,Wunderground v.1.15,2013-05-14 04:20:00,
2013-05-13 23:25:00,72.5,41.0,29.58,WNW,301,0.0,1.0,32,0.00,,,0.00,Wunderground v.1.15,2013-05-14 04:25:00,
2013-05-13 23:30:00,72.3,40.8,29.58,WNW,301,0.0,1.0,32,0.00,,,0.00,Wunderground v.1.15,2013-05-14 04:30:00,
2013-05-13 23:35:00,72.1,40.6,29.58,WNW,301,0.0,1.0,32,0.00,,,0.00,Wunderground v.1.15,2013-05-14 04:35:00,
2013-05-13 23:40:00,71.8,41.1,29.58,NW,313,0.0,1.0,33,0.00,,,0.00,Wunderground v.1.15,2013-05-14 04:40:00,
2013-05-13 23:50:00,71.6,41.0,29.58,NW,313,0.0,0.0,33,0.00,,,0.00,Wunderground v.1.15,2013-05-14 04:50:00,
2013-05-13 23:55:00,71.5,40.1,29.58,NW,313,0.0,0.0,32,0.00,,,0.00,Wunderground v.1.15,2013-05-14 04:55:00,